This demonstration page uses our WeatherBlox Daily Observations layout. Learn more.

Left ArrowRight Arrow

41.86663, -103.66717

Hourly Observations for September 5, 2021

Temp ( °F °C ) Dew Point ( °F °C ) Humidity (%) Winds ( mph kmh ) Pressure ( in mb ) Visibility ( mi km ) Precip ( " mm )
12:53 am 00:53 Clear 59 15 54 12.2 83 83 E 5 7 29.98 1015 10 16 0.00 0.00
1:53 am 01:53 Clear 56 13.3 53 11.7 90 90 WNW 5 7 29.97 1015 9 14 0.00 0.00
2:53 am 02:53 undefined 54 12.2 51 10.6 90 90 NW 7 11 29.96 1015 8 13 0.00 0.00
3:53 am 03:53 Clear 54 12.2 50 10 87 87 NW 12 19 29.96 1015 8 13 0.00 0.00
4:53 am 04:53 Clear 52 11.1 48 8.9 86 86 NW 10 17 29.98 1015 8 13 0.00 0.00
5:53 am 05:53 Clear 50 10 47 8.3 89 89 NW 8 13 29.99 1016 8 13 0.00 0.00
6:53 am 06:53 Sunny 51 10.6 46 7.8 83 83 NW 9 15 30.02 1017 9 14 0.00 0.00
7:53 am 07:53 Sunny 54 12.2 48 8.9 80 80 NW 8 13 30.04 1017 9 14 0.00 0.00
8:53 am 08:53 Sunny 59 15 47 8.3 64 64 NW 13 20 30.05 1018 10 16 0.00 0.00
9:53 am 09:53 undefined 68 20 43 6.1 40 40 WNW 13 20 30.04 1017 10 16 0.00 0.00
10:53 am 10:53 undefined 73 22.8 41 5 32 32 W 10 17 30.04 1017 10 16 0.00 0.00
11:53 am 11:53 undefined 78 25.6 42 5.6 28 28 W 8 13 30.01 1016 10 16 0.00 0.00
12:53 pm 12:53 undefined 84 28.9 37 2.8 19 19 W 8 13 29.98 1015 10 16 0.00 0.00
1:53 pm 13:53 undefined 87 30.6 33 0.6 14 14 VRB 5 7 29.96 1015 10 16 0.00 0.00
2:53 pm 14:53 undefined 88 31.1 29 -1.7 12 12 WSW 14 22 29.96 1014 10 16 0.00 0.00
3:53 pm 15:53 undefined 89 31.7 28 -2.2 11 11 W 12 19 29.94 1014 10 16 0.00 0.00
4:53 pm 16:53 undefined 89 31.7 28 -2.2 11 11 WNW 10 17 29.93 1014 10 16 0.00 0.00
5:53 pm 17:53 undefined 88 31.1 32 0 13 13 NW 5 7 29.93 1014 10 16 0.00 0.00
6:53 pm 18:53 undefined 82 27.8 40 4.4 22 22 SSE 5 7 29.93 1014 10 16 0.00 0.00
7:53 pm 19:53 undefined 71 21.7 49 9.4 46 46 ESE 3 6 29.95 1014 10 16 0.00 0.00
8:53 pm 20:53 undefined 65 18.3 48 8.9 54 54 Calm 29.97 1015 10 16 0.00 0.00
9:53 pm 21:53 undefined 62 16.7 46 7.8 56 56 E 6 9 29.96 1015 10 16 0.00 0.00
10:53 pm 22:53 undefined 60 15.6 45 7.2 58 58 E 7 11 29.96 1015 10 16 0.00 0.00
11:53 pm 23:53 undefined 59 15 42 5.6 54 54 E 7 11 29.96 1014 10 16 0.00 0.00

Powered by AerisWeather